OPS 8579 (DMSP 5B F5)

Satellite information

Favourite Embed

Satellite Type and Status

PAYLOADIN ORBIT

Key statistics

Satellite OPS 8579 (DMSP 5B F5) at a glance.

Uptime

18847

Days in orbit

Revolutions

≈ 14.3

Per day

Orbit

SSO

Sun Synchronous Orbit

Inclination

99.0

Latest

Satellite identification and parameters

Extended collection of information and parameters for OPS 8579 (DMSP 5B F5).

Object identification

Identified? True

Debris? False

Object name: OPS 8579 (DMSP 5B F5)

International designator: 1974-015A

Object number (NORAD): 7218

Object ID (CCSDS): 7218

Country: UNITED STATES OF AMERICA (US)

Current information (Y/N): Y

RCS size: LARGE

Orbital parameters

Period: 100.558 minutes

Inclination: 98.9915 deg

SMA: 7163.162 km

Apoapsis: 824.41 km

Periapsis: 745.644 km

RAAN: 23.3705 deg

Eccentricy: 0.00549798

Argument of periapsis: 284.4941 deg

Mean anomaly: 75.0146 deg

Mean motion: 14.32008622 rev/day

Mean motion (dot): 0.00000483 rev/day2

B* drag term: 0.0001946934 1/REarth

Two-line elements (TLE)

Creation date: Oct. 21, 2025, 3:26 a.m.

Reference frame: TEME

Reference center: EARTH

Epoch: Oct. 20, 2025, 6:21 p.m. UTC

TLE line 0: 0 OPS 8579 (DMSP 5B F5)

TLE line 1: 1 07218U 74015A 25293.76505443 .00000483 00000-0 19469-3 0 9997

TLE line 2: 2 07218 98.9915 23.3705 0054980 284.4941 75.0146 14.32008622686684

Live tracking on map

Real-time ground track for satellite OPS 8579 (DMSP 5B F5).

In-orbit conjunctions

There are no conjunctions computed for OPS 8579 (DMSP 5B F5), at the moment. Check back to stay up to date, as we update our databases every day.

Go to all conjunctions

Associated space launch

Military meteorological satellite

OPS 8579 (DMSP 5B F5) was lifted into orbit during the mission ‘Thor Burner 2A | DMSP-5B F5’, on board a Thor Burner 2A space rocket.

The launch took place on March 16, 1974, 8 a.m. from Space Launch Complex 10W.

For more information about the launch, click the button.

Launch to space Thor Burner 2A | DMSP-5B F5
Thor Burner 2A | DMSP-5B F5

Agency: N/A

Status: Launch Successful

Launch date: March 16, 1974, 8 a.m. UTC

Rocket: Thor Burner 2A

Launch pad: Space Launch Complex 10W

Location: Vandenberg SFB, CA, USA

...

Latest news about this satellite

There are no fresh news available about this satellite. Check back as we update our databases every day.


Newsletter sign-up

Weekly statistics, charts and insights to help you stay on top of the space industry.